Location: Buckenweiler
(49.0667°N, 10.2500°E)
Time: 08:45:37
(UTC+00:00)

Meteor 1-16 Rocket - Visible Passes

Search period start: 10 April 2026 00:00
Search period end: 20 April 2026 00:00
Orbit: 789 x 905 km, 81.2° (Epoch: 9 April)

Date Brightness Start Highest point End Pass type
(mag) Time Alt. Az. Time Alt. Az. Time Alt. Az.
10 Apr 4.6 18:56:33 10° SSE 19:02:11 48° E 19:07:49 10° NNE visible
10 Apr 6.0 20:39:59 10° SW 20:45:14 32° WNW 20:50:30 10° N visible
11 Apr 4.7 18:43:33 10° SSE 18:49:05 44° E 18:54:38 10° NNE visible
11 Apr 5.9 20:26:41 10° SW 20:32:03 35° WNW 20:37:26 10° N visible
12 Apr 4.8 18:30:34 10° SSE 18:36:01 40° E 18:41:27 10° NNE visible
12 Apr 5.8 20:13:25 10° SW 20:18:53 38° WNW 20:24:21 10° N visible
13 Apr 5.7 20:00:10 10° SW 20:05:43 41° WNW 20:11:16 10° N visible
14 Apr 5.5 19:46:56 10° SW 19:52:34 45° WNW 19:58:11 10° N visible
15 Apr 5.4 19:33:41 10° SSW 19:39:24 49° WNW 19:45:05 10° N visible
16 Apr 5.2 19:20:29 10° SSW 19:26:15 53° WNW 19:31:59 10° N visible
16 Apr 7.5 21:09:17 10° WNW 21:10:33 11° NW 21:11:48 10° NW visible
17 Apr 5.1 19:07:17 10° SSW 19:13:06 58° WNW 19:18:52 10° N visible
17 Apr 7.5 20:55:18 10° WNW 20:57:18 12° NW 20:59:16 10° NNW visible
18 Apr 4.9 18:54:06 10° SSW 18:59:57 63° WNW 19:05:45 10° N visible
18 Apr 7.4 20:41:33 10° W 20:44:03 13° NW 20:46:31 10° NNW visible
19 Apr 7.1 03:46:32 10° N 03:50:55 23° ENE 03:55:11 10° ESE visible
19 Apr 4.8 18:40:56 10° SSW 18:46:49 69° WNW 18:52:38 10° N visible
19 Apr 7.4 20:27:55 10° W 20:30:48 14° NW 20:33:41 10° NNW visible
